星链-34835 (STARLINK-34835)

导读

STARLINK-34835是美国于北京时间2025年8月27日发射的星链卫星,隶属于SpaceX公司主导的星链项目。星链项目旨在构建全球卫星互联网星座,为全球范围内用户提供高速低延迟的宽带互联网服务,该卫星的发射进一步扩充了星链星座的在轨卫星规模。

Basic Information
目录编号:
65336
目录名称:
STARLINK-34835
国际标识:
2025-189P
轨道中心:
EARTH
卫星名称:
星链-34835
卫星全名:
星链-34835 (STARLINK-34835)
卫星状态:
在轨 (已飞行381 天)
发射日期:
2025-08-27 UTC
国别 :
美国 (US)
星等 :
--
This satellite is enrolled in the Space Conjunction Data Service (SCDS) and the current flight risk assessment level is: No High Risk
Orbit Information
数据来源 国际轨道数据
星历时间: 2026-09-12T02:24:32+0800
11小时前
查看轨道信息
半长轴: 6840.843km
偏心率: 0.0001271
轨道倾角: 53.158°
近地点辐角 91.311°
升交点赤经 60.478°
平近点角 268.803°
近地点: 461.836km
远地点: 463.576km
周期: 93.848分钟
每日圈数: 15.343992
Detailed Information
固有亮度:
5
最大亮度:
2.5
卫星平台:
Starlink V1.0
覆盖范围:
全球
运营商:
太空探索技术公司
运营商所在国:
美国
制造商(研发单位):
太空探索技术公司
制造商所在国:
美国
使用方式:
暂无
Satellite Introduction
Starlink 计划是 SpaceX 推出的全球卫星互联网项目,通过发射低轨道卫星,为全球尤其是偏远地区提供高速、低延迟的互联网服务。自 2019 年起,Starlink 已部署数千颗卫星,旨在缩小全球数字鸿沟,推动互联网普及。该项目还为军事、航空等行业提供通信支持,带来广泛经济效益。
2D Orbit Map
3D Orbit Map
Orbit Altitude Analysis Chart
Orbit Inclination Analysis Chart
Orbit Comprehensive Analysis Chart
View Comprehensive Chart
Conjunction Data List
Event ID Objects TCA Miss Dist (km) Collision Risk Probability Collision Risk Index (CRI) Action
CDM_260914-095906-093706-533621
2026-09-14T
09:59:46+0000
0.796 km
远距离
3.671437E-5 中风险 0.66
CDM_260913-091201-821406-533621
2026-09-13T
09:12:48+0000
1.309 km
极远距离
5.859274E-6 低风险 0.5
CDM_260914-054806-533606-687921
2026-09-14T
05:48:14+0000
1.675 km
极远距离
4.158995E-6 低风险 0.47
CDM_260912-204703-679906-533622
TISAT 1 (36799)
2026-09-12T
20:47:26+0000
1.878 km
极远距离
3.334136E-6 低风险 0.45
CDM_260914-041406-533606-687921
2026-09-14T
04:14:27+0000
1.841 km
极远距离
3.158104E-6 低风险 0.45
CDM_260912-213403-679906-533621
TISAT 1 (36799)
2026-09-12T
21:34:22+0000
2.015 km
极远距离
2.772376E-6 低风险 0.44
CDM_260914-113306-093706-533621
2026-09-14T
11:33:34+0000
2.088 km
极远距离
1.708956E-6 低风险 0.4
CDM_260914-033605-246306-533621
2026-09-14T
03:36:46+0000
2.412 km
极远距离
1.598596E-6 低风险 0.39
CDM_260913-045505-198006-533621
2026-09-13T
04:55:19+0000
2.661 km
极远距离
1.373641E-6 低风险 0.38
Miss Distance Evolution Trend with All Objects
Collision Probability Evolution Trend with All Objects